Location: Borovka
(49.7741°N, 14.5280°E)
Time: 20:14:17
(UTC+00:00)

LilacSat-2 - Pass Details

Date: 17 March 2026
Orbit: 412 x 424 km, 97.5° (Epoch: 21 April)

Event Time Altitude Azimuth Distance (km) Brightness Sun altitude
Rises 19:03:55 0° 205° (SSW) 2,391 ? -18.8°
Reaches altitude 10° 19:06:31 10° 229° (SW) 1,531 ? -19.2°
Maximum altitude 19:08:35 16° 268° (W) 1,233 ? -19.5°
Drops below altitude 10° 19:10:40 10° 307° (NW) 1,541 ? -19.8°
Sets 19:13:18 0° 331° (NNW) 2,414 ? -20.2°
